Change the Weather History Date:

Saturday, June 29, 2013

  Actual Average Record
Temperature  
Mean Temperature 76 °F -  
Max Temperature 85 °F 82 °F 102 °F (2012)
Min Temperature 66 °F 62 °F 55 °F (2004)
Cooling Degree Days 11    
Month to date cooling degree days 229  
Year to date cooling degree days 346  
Since 1 June cooling degree days 229  
Growing Degree Days 25 (Base 50)    
Moisture  
Dew Point 62 °F    
Average Humidity 64    
Maximum Humidity 87    
Minimum Humidity 40    
Precipitation  
Precipitation 0.00 in - - ()
Month to date precipitation 3.68  
Year to date precipitation 13.54  
Sea Level Pressure  
Sea Level Pressure 29.64 in    
Wind  
Wind Speed 5 mph (WSW)    
Max Wind Speed 9 mph    
Max Gust Speed -    
Visibility 9 miles    
Events Rain    
Averages and records for this station are not official NWS values.
T = Trace of Precipitation, MM = Missing Value Source: NWS Daily Summary

Daily Weather History Graph

Daily Weather History Graph

Search for Another Location

Airport or City:

Trip Planner

Search our weather history database for the weather conditions in past years. The results will help you decide how hot, cold, wet, or windy it might be!

Date:

Astronomy

Jun. 29, 2013 Rise Set
Actual Time 5:45 AM EDT 8:42 PM EDT
Civil Twilight 5:13 AM EDT 9:15 PM EDT
Nautical Twilight 4:32 AM EDT 9:56 PM EDT
Astronomical Twilight 3:44 AM EDT 10:44 PM EDT
Moon 12:11 AM EDT (6/29) 12:54 PM EDT (6/29)
Length of Visible Light 16h 01m
Length of Day
14h 56m
Waning Gibbous, 56% of the Moon is Illuminated
Jun 29
Waning Gibbous
Jun 30
Last Quarter
Jul 8
New
Jul 15
First Quarter
Jul 22
Full

Hourly Weather History & Observations

Time (EDT) Temp. Heat Index Dew Point Humidity Pressure Visibility Wind Dir Wind Speed Gust Speed Precip Events Conditions
12:53 AM 69.1 °F - 63.0 °F 81% 29.58 in 10.0 mi Calm Calm - N/A   Clear
1:53 AM 70.0 °F - 62.1 °F 76% 29.57 in 10.0 mi Calm Calm - N/A   Clear
2:53 AM 68.0 °F - 63.0 °F 84% 29.56 in 10.0 mi West 5.8 mph - N/A   Mostly Cloudy
3:53 AM 68.0 °F - 63.0 °F 84% 29.56 in 10.0 mi SSE 4.6 mph - N/A   Clear
4:53 AM 68.0 °F - 63.0 °F 84% 29.57 in 10.0 mi East 3.5 mph - N/A   Overcast
5:53 AM 68.0 °F - 63.0 °F 84% 29.59 in 10.0 mi Calm Calm - N/A   Clear
6:53 AM 66.9 °F - 63.0 °F 87% 29.61 in 10.0 mi Calm Calm - N/A   Partly Cloudy
7:53 AM 72.0 °F - 60.1 °F 66% 29.63 in 10.0 mi WSW 5.8 mph - N/A   Clear
8:53 AM 73.0 °F - 60.1 °F 64% 29.64 in 10.0 mi WSW 4.6 mph - N/A   Clear
9:53 AM 73.9 °F - 60.1 °F 62% 29.65 in 10.0 mi WSW 8.1 mph - N/A   Clear
10:53 AM 75.9 °F - 61.0 °F 60% 29.65 in 10.0 mi SW 5.8 mph - N/A   Scattered Clouds
11:53 AM 78.1 °F - 61.0 °F 56% 29.65 in 10.0 mi WNW 6.9 mph - N/A   Scattered Clouds
12:53 PM 81.0 °F 81.6 °F 60.1 °F 49% 29.65 in 10.0 mi West 8.1 mph - N/A   Partly Cloudy
1:53 PM 82.0 °F 82.1 °F 59.0 °F 45% 29.63 in 10.0 mi West 9.2 mph - N/A   Clear
2:53 PM 82.9 °F 82.4 °F 57.0 °F 41% 29.63 in 10.0 mi SSW 8.1 mph - N/A   Partly Cloudy
3:53 PM 84.9 °F 84.2 °F 57.9 °F 40% 29.62 in 10.0 mi South 8.1 mph - N/A   Partly Cloudy
4:53 PM 84.9 °F 83.9 °F 57.0 °F 38% 29.62 in 10.0 mi SSW 6.9 mph - N/A   Clear
5:53 PM 84.0 °F 83.3 °F 57.0 °F 40% 29.62 in 10.0 mi SSW 5.8 mph - N/A   Partly Cloudy
6:53 PM 81.0 °F 81.7 °F 61.0 °F 50% 29.65 in 10.0 mi NW 3.5 mph - 0.00 in   Overcast
7:53 PM 75.0 °F - 64.9 °F 71% 29.67 in 10.0 mi North 9.2 mph - N/A   Mostly Cloudy
8:38 PM 69.8 °F - 66.2 °F 88% 29.71 in 1.8 mi Variable 5.8 mph - 0.08 in Rain Heavy Rain
8:48 PM 69.8 °F - 66.2 °F 88% 29.69 in 3.0 mi Calm Calm - 0.11 in Rain Light Rain
8:53 PM 70.0 °F - 66.9 °F 90% 29.70 in 9.0 mi Calm Calm - 0.11 in Rain Light Rain
9:53 PM 69.1 °F - 66.9 °F 93% 29.73 in 10.0 mi East 4.6 mph - 0.00 in   Clear
10:53 PM 68.0 °F - 66.9 °F 96% 29.74 in 10.0 mi NNW 4.6 mph - N/A   Clear
11:53 PM 69.1 °F - 66.9 °F 93% 29.74 in 10.0 mi Calm Calm - N/A   Clear